Regional Weather Roundup
Issued by NWS

Home | Current Version | Previous Version | Graphics & Text | Print | Product List | Glossary On
Versions: 1 2 3 4 5 6 7 8 9 10 11 12 13 14 15 16 17 18 19 20 21 22 23 24 25 26 27 28 29 30 31 32 33 34 35 36 37 38 39 40 41 42 43 44 45 46 47 48 49 50
000
ASUS43 KMKX 240311
RWRWI

WISCONSIN REGIONAL WEATHER ROUNDUP
NATIONAL WEATHER SERVICE MILWAUKEE/SULLIVAN WI
1000 PM CDT WED AUG 23 2017

NOTE: "FAIR" INDICATES FEW OR NO CLOUDS BELOW 12,000 FEET WITH NO
SIGNIFICANT WEATHER AND/OR OBSTRUCTIONS TO VISIBILITY.

WIZ001-002-006>008-014>016-023>028-240400-
NORTHWEST WISCONSIN

CITY           SKY/WX    TMP DP  RH WIND       PRES   REMARKS
SUPERIOR ARPT  DRIZZLE   57  54  88 NW8       30.10R
ASHLAND        CLOUDY    54  49  83 CALM      30.08S
HAYWARD        CLOUDY    58  51  78 N3        30.08R
SIREN          CLOUDY    58  53  85 CALM      30.08R
CUMBERLAND     CLOUDY    54  52  94 CALM      30.07S
RICE LAKE      CLOUDY    56  54  91 CALM      30.08S
CHETEK         CLOUDY    56  53  88 CALM      30.07S
LADYSMITH      CLEAR     55  50  83 NE6       30.09S
EAU CLAIRE     CLEAR     55  52  89 CALM      30.05S
MENOMONIE      CLEAR     59  53  78 CALM      30.06S
NEW RICHMOND   PTCLDY    57  51  80 CALM      30.06F
OSCEOLA        CLOUDY    61  55  81 CALM      30.09S
$$

WIZ003>005-009-010-017-018-240400-
NORTH CENTRAL WISCONSIN

CITY           SKY/WX    TMP DP  RH WIND       PRES   REMARKS
MANITOWISH WTR PTCLDY    43  43 100 NE3       30.09S
ARBOR VITAE    CLEAR     47  44  90 CALM      30.09S
WOODRUFF       CLEAR     47  44  90 CALM      30.09S
RHINELANDER    CLEAR     49  43  80 N3        30.09S
EAGLE RIVER    CLEAR     45  42  92 CALM      30.09S
LAND O LAKES   PTCLDY    42  41  97 CALM      30.11S
PHILLIPS       CLOUDY    51  48  92 CALM      30.08S
TOMAHAWK         N/A     47  42  85 CALM      30.09S
MEDFORD        CLEAR     51  46  85 NE6       30.07S
MERRILL        CLEAR     52  46  82 CALM      30.08S
$$

WIZ029-030-035-036-043>047-240400-
CENTRAL WISCONSIN

CITY           SKY/WX    TMP DP  RH WIND       PRES   REMARKS
WAUSAU         CLEAR     57  45  64 N6        30.06R
MOSINEE        CLEAR     55  46  71 NE6       30.08R
MARSHFIELD     CLEAR     58  46  64 N3        30.06R
STEVENS POINT  CLEAR     52  49  91 CALM      30.07R
WAUPACA        CLEAR     58  52  80 NW3       30.06R
WAUTOMA        CLEAR     57  51  80 CALM      30.06R
WISC RAPIDS    CLEAR     56  49  77 N3        30.07R
CAMP DOUGLAS   CLEAR     52  50  93 W3        30.05R
$$

WIZ011>013-019>022-031-037>040-048>050-240400-
NORTHEAST WISCONSIN

CITY           SKY/WX    TMP DP  RH WIND       PRES   REMARKS
ANTIGO         CLEAR     48  43  83 N7        30.08S
SHAWANO        PTCLDY    62  49  63 N10G16    30.06R
OCONTO         CLOUDY    60  46  59 N6        30.06R
STURGEON BAY   CLOUDY    60  53  77 N10       30.06R
GREEN BAY      MOCLDY    57  56  96 CALM      30.04R
MANITOWOC      CLEAR     58  55  90 CALM      30.04R
APPLETON       PTCLDY    59  46  63 NW7       30.03R
CLINTONVILLE   CLEAR     59  46  63 N6        30.06R
OSHKOSH        MOCLDY    60  51  72 NW5       30.03R
$$

WIZ032>034-041-042-053>061-240400-
SOUTHWEST WISCONSIN

CITY           SKY/WX    TMP DP  RH WIND       PRES   REMARKS
LA CROSSE      CLEAR     64  56  75 CALM      30.05R
SPARTA         CLEAR     52  51  96 CALM      30.07S
VIROQUA        CLEAR     59  54  83 NE3       30.06S
BOSCOBEL       CLEAR     56  54  93 CALM      30.05R
PRAIRIE DU CHI CLEAR     58  54  84 CALM      30.05R
PLATTEVILLE    CLEAR     61  54  77 CALM      30.05S
$$

WIZ056-057-062-063-064-067-068-240400-
SOUTH CENTRAL WISCONSIN

CITY           SKY/WX    TMP DP  RH WIND       PRES   REMARKS
REEDSBURG      CLEAR     59  53  82 CALM      30.05S
BARABOO/DELLS  CLEAR     56  50  82 CALM      30.06R
LONE ROCK      CLEAR     57  55  93 CALM      30.05R
MINERAL POINT  CLEAR     61  55  82 CALM      30.06R
MADISON        CLEAR     57  54  89 CALM      30.04R
MIDDLETON      CLEAR     56  56 100 CALM      30.05S
WATERTOWN      CLEAR     56  55  97 CALM      30.03S
MONROE         CLEAR     63  50  63 NW5       30.05R
JANESVILLE     CLEAR     59  59 100 CALM      30.03S
$$

WIZ051-052-058>065-066-070>072-240400-
SOUTHEAST WISCONSIN

CITY           SKY/WX    TMP DP  RH WIND       PRES   REMARKS
MILWAUKEE      PTCLDY    65  56  72 S3        30.03R
WAUKESHA       NOT AVBL
MILWAUKEE/TIMM CLEAR     61  52  72 CALM      30.04R
RACINE         CLEAR     63  58  83 CALM      30.04S
KENOSHA        CLEAR     58  55  90 CALM      30.03S
FOND DU LAC    PTCLDY    62  50  64 W7        30.03R
SHEBOYGAN      PTCLDY    59  58  96 CALM      30.03R
WEST BEND      CLEAR     55  54  94 CALM      30.03S
JUNEAU         CLEAR     56  52  85 CALM      30.05R
$$

LSZ147-162-240400-
LAKE SUPERIOR

STATION/POSITION TIME  TEMP    WIND        PRES    WAVE
                       AIR SEA DIR/SP/G            HT/PER
                 (UTC) (F)     (DEG/KT/KT) (MB)    (FT/S)
W MID LAKE BUOY  0250   60 60  280/  6/  6 1018.4R   1
DEVILS ISLAND    0300   60     210/  4/  5 1018.7R
PORT WING        0140   64     120/  5/  8 1017.9S
SAXON HARBOR     0230   54     180/  5/  6 1017.9S
$$

LMZ867-665-643>646-240400-
LAKE MICHIGAN

STATION/POSITION TIME  TEMP    WIND        PRES    WAVE
                       AIR SEA DIR/SP/G            HT/PER
                 (UTC) (F)     (DEG/KT/KT) (MB)    (FT/S)
S GREEN BAY BUOY 0300   65 70   50/ 19/ 21 1017.2
N MID LAKE BUOY  0250   58 66  360/ 17/ 23 1018.0R   3/ 4
NORTHPORT PIER   0240   60     360/ 16/ 20 1017.9R
KEWAUNEE LAKESHO 0242   59     300/  2/  4 1016.1R
SHEBOYGAN LAKESH 0300   66     170/  9/ 10 1016.4R
PORT WASHINGTON  0230   65     270/  4/  6 1017.3S
ATWATER BUOY     0239   68 70  210/  8/ 10 1016.9R
MILWAUKEE LAKESH 0250   66     210/  5/  6   N/A
S MID LAKE BUOY  0250   67 71   70/  2/  4 1016.9R   2/ 6
KENOSHA   LAKESH 0300   66     280/  1/  2 1016.6
$$

TC  - TEMPERATURE IN CELSIUS
VSB - VISIBILITY IN STATUTE MILES
WCI - WIND CHILL INDEX
HX  - HEAT INDEX




USA.gov is the U.S. government's official web portal to all federal, state and local government web resources and services.